JCSAT-18 (KACIFIC 1)

Last updated on Wed Jul 16 2025 00:02:49 GMT+0000 (Coordinated Universal Time)

1 44868U 19091A 25195.76705359 -.00000194 00000+0 00000+0 0 9997 2 44868 0.0169 273.5019 0000456 321.3769 124.1571 1.00267964 20627
UTC large
Height (km)
Speed (km/s)
/
Latitude / Longitude
Inclination (degrees)
Orbital Period (minutes)
Azimuth
Elevation
Range (km)
Doppler Factor

Next 0 passes for location: London (51.5072 / 0.1276)

Sorry there are no passes over London.